Location: Newark
(5.8900°S, 42.6378°W)
Time: 03:31:49
(UTC+00:00)

Courier 1B - Visible Passes

Search period start: 22 September 2019 00:00
Search period end: 02 October 2019 00:00
Orbit: 962 x 1209 km, 28.3° (Epoch: 21 September)

Date Brightness Start Highest point End Pass type
(mag) Time Alt. Az. Time Alt. Az. Time Alt. Az.
22 Sep 9.9 21:49:32 10° SSW 21:51:00 11° S 21:52:28 10° S visible
23 Sep 9.7 22:49:46 10° SSW 22:52:35 13° S 22:52:35 13° S visible
24 Sep 9.8 21:55:57 10° SSW 21:58:29 12° S 22:00:58 10° SSE visible
24 Sep 10.2 23:48:53 10° SSW 23:49:08 11° SSW 23:49:08 11° SSW visible
25 Sep 9.9 21:01:44 10° SSW 21:04:02 11° S 21:06:18 10° SSE visible
25 Sep 9.5 22:55:17 10° SSW 22:58:47 18° S 22:58:47 18° S visible
26 Sep 9.5 22:01:37 10° SSW 22:05:51 16° SSE 22:08:27 13° SE visible
26 Sep 10.1 23:54:37 10° SW 23:55:21 13° SW 23:55:21 13° SW visible
27 Sep 9.7 21:07:52 10° SSW 21:11:29 14° S 21:15:02 10° SE visible
27 Sep 9.2 23:00:56 10° SW 23:05:03 25° S 23:05:03 25° S visible
28 Sep 9.0 22:07:15 10° SSW 22:13:00 23° SSE 22:14:47 21° SE visible
29 Sep 10.1 00:00:38 10° SW 00:01:41 15° SW 00:01:41 15° SW visible
29 Sep 9.4 21:13:34 10° SSW 21:18:45 19° SSE 21:23:45 10° ESE visible
29 Sep 8.8 23:06:47 10° SW 23:11:26 36° SSW 23:11:26 36° SSW visible
30 Sep 8.4 22:13:00 10° SW 22:19:52 37° SSE 22:21:14 34° SE visible
01 Oct 10.1 00:07:02 10° WSW 00:08:08 15° WSW 00:08:08 15° WSW visible
01 Oct 8.9 21:19:16 10° SW 21:25:45 29° SSE 21:31:03 13° ESE visible
01 Oct 8.6 23:12:57 10° WSW 23:17:58 45° SW 23:17:58 45° SW visible
